Year,Month,Day,Hour,Minute,Value (Times are PST for temperature in C)
2021,12,02,00,00,11.00
2021,12,02,00,01,11.00
2021,12,02,00,02,11.00
2021,12,02,00,03,11.00
2021,12,02,00,04,11.00
2021,12,02,00,05,11.00
2021,12,02,00,06,11.00
2021,12,02,00,07,10.90
2021,12,02,00,08,10.90
2021,12,02,00,09,10.90
2021,12,02,00,10,10.80
2021,12,02,00,11,10.80
2021,12,02,00,12,10.80
2021,12,02,00,13,10.80
2021,12,02,00,14,10.80
2021,12,02,00,15,10.70
2021,12,02,00,16,10.70
2021,12,02,00,17,10.70
2021,12,02,00,18,10.70
2021,12,02,00,19,10.70
2021,12,02,00,20,10.60
2021,12,02,00,21,10.60
2021,12,02,00,22,10.60
2021,12,02,00,23,10.60
2021,12,02,00,24,10.60
2021,12,02,00,25,10.50
2021,12,02,00,26,10.50
2021,12,02,00,27,10.40
2021,12,02,00,28,10.40
2021,12,02,00,29,10.40
2021,12,02,00,30,10.40
2021,12,02,00,31,10.40
2021,12,02,00,32,10.40
2021,12,02,00,33,10.40
2021,12,02,00,34,10.40
2021,12,02,00,35,10.40
2021,12,02,00,36,10.40
2021,12,02,00,37,10.40
2021,12,02,00,38,10.40
2021,12,02,00,39,10.50
2021,12,02,00,40,10.60
2021,12,02,00,41,10.60
2021,12,02,00,42,10.70
2021,12,02,00,43,10.70
2021,12,02,00,44,10.80
2021,12,02,00,45,10.80
2021,12,02,00,46,10.80
2021,12,02,00,47,10.80
2021,12,02,00,48,10.80
2021,12,02,00,49,10.80
2021,12,02,00,50,10.80
2021,12,02,00,51,10.80
2021,12,02,00,52,10.80
2021,12,02,00,53,10.80
2021,12,02,00,54,10.80
2021,12,02,00,55,10.80
2021,12,02,00,56,10.80
2021,12,02,00,57,10.80
2021,12,02,00,58,10.80
2021,12,02,00,59,10.70
2021,12,02,01,00,10.70
2021,12,02,01,01,10.70
2021,12,02,01,02,10.70
2021,12,02,01,03,10.70
2021,12,02,01,04,10.70
2021,12,02,01,05,10.70
2021,12,02,01,06,10.70
2021,12,02,01,07,10.70
2021,12,02,01,08,10.60
2021,12,02,01,09,10.60
2021,12,02,01,10,10.60
2021,12,02,01,11,10.60
2021,12,02,01,12,10.60
2021,12,02,01,13,10.60
2021,12,02,01,14,10.60
2021,12,02,01,15,10.60
2021,12,02,01,16,10.50
2021,12,02,01,17,10.50
2021,12,02,01,18,10.50
2021,12,02,01,19,10.40
2021,12,02,01,20,10.40
2021,12,02,01,21,10.40
2021,12,02,01,22,10.40
2021,12,02,01,23,10.40
2021,12,02,01,24,10.40
2021,12,02,01,25,10.30
2021,12,02,01,26,10.30
2021,12,02,01,27,10.30
2021,12,02,01,28,10.30
2021,12,02,01,29,10.30
2021,12,02,01,30,10.30
2021,12,02,01,31,10.30
2021,12,02,01,32,10.40
2021,12,02,01,33,10.40
2021,12,02,01,34,10.40
2021,12,02,01,35,10.40
2021,12,02,01,36,10.40
2021,12,02,01,37,10.40
2021,12,02,01,38,10.40
2021,12,02,01,39,10.40
2021,12,02,01,40,10.40
2021,12,02,01,41,10.30
2021,12,02,01,42,10.30
2021,12,02,01,43,10.20
2021,12,02,01,44,10.20
2021,12,02,01,45,10.10
2021,12,02,01,46,10.00
2021,12,02,01,47,10.00
2021,12,02,01,48,9.90
2021,12,02,01,49,9.90
2021,12,02,01,50,9.90
2021,12,02,01,51,9.80
2021,12,02,01,52,9.80
2021,12,02,01,53,9.80
2021,12,02,01,54,9.80
2021,12,02,01,55,9.80
2021,12,02,01,56,9.80
2021,12,02,01,57,9.70
2021,12,02,01,58,9.70
2021,12,02,01,59,9.70
2021,12,02,02,00,9.70
2021,12,02,02,01,9.70
2021,12,02,02,02,9.70
2021,12,02,02,03,9.70
2021,12,02,02,04,9.80
2021,12,02,02,05,9.80
2021,12,02,02,06,9.80
2021,12,02,02,07,9.80
2021,12,02,02,08,9.80
2021,12,02,02,09,9.80
2021,12,02,02,10,9.80
2021,12,02,02,11,9.80
2021,12,02,02,12,9.80
2021,12,02,02,13,9.80
2021,12,02,02,14,9.80
2021,12,02,02,15,9.80
2021,12,02,02,16,9.70
2021,12,02,02,17,9.70
2021,12,02,02,18,9.70
2021,12,02,02,19,9.70
2021,12,02,02,20,9.70
2021,12,02,02,21,9.70
2021,12,02,02,22,9.70
2021,12,02,02,23,9.70
2021,12,02,02,24,9.80
2021,12,02,02,25,9.80
2021,12,02,02,26,9.80
2021,12,02,02,27,10.00
2021,12,02,02,28,10.10
2021,12,02,02,29,10.20
2021,12,02,02,30,10.20
2021,12,02,02,31,10.30
2021,12,02,02,32,10.30
2021,12,02,02,33,10.40
2021,12,02,02,34,10.40
2021,12,02,02,35,10.40
2021,12,02,02,36,10.40
2021,12,02,02,37,10.40
2021,12,02,02,38,10.50
2021,12,02,02,39,10.50
2021,12,02,02,40,10.40
2021,12,02,02,41,10.40
2021,12,02,02,42,10.40
2021,12,02,02,43,10.40
2021,12,02,02,44,10.40
2021,12,02,02,45,10.40
2021,12,02,02,46,10.40
2021,12,02,02,47,10.40
2021,12,02,02,48,10.40
2021,12,02,02,49,10.30
2021,12,02,02,50,10.30
2021,12,02,02,51,10.30
2021,12,02,02,52,10.30
2021,12,02,02,53,10.30
2021,12,02,02,54,10.30
2021,12,02,02,55,10.40
2021,12,02,02,56,10.40
2021,12,02,02,57,10.40
2021,12,02,02,58,10.40
2021,12,02,02,59,10.40
2021,12,02,03,00,10.40
2021,12,02,03,01,10.40
2021,12,02,03,02,10.40
2021,12,02,03,03,10.40
2021,12,02,03,04,10.40
2021,12,02,03,05,10.40
2021,12,02,03,06,10.30
2021,12,02,03,07,10.30
2021,12,02,03,08,10.30
2021,12,02,03,09,10.30
2021,12,02,03,10,10.20
2021,12,02,03,11,10.20
2021,12,02,03,12,10.20
2021,12,02,03,13,10.10
2021,12,02,03,14,10.00
2021,12,02,03,15,9.90
2021,12,02,03,16,9.80
2021,12,02,03,17,9.70
2021,12,02,03,18,9.70
2021,12,02,03,19,9.60
2021,12,02,03,20,9.50
2021,12,02,03,21,9.50
2021,12,02,03,22,9.40
2021,12,02,03,23,9.30
2021,12,02,03,24,9.30
2021,12,02,03,25,9.20
2021,12,02,03,26,9.20
2021,12,02,03,27,9.10
2021,12,02,03,28,9.10
2021,12,02,03,29,9.00
2021,12,02,03,30,8.90
2021,12,02,03,31,8.90
2021,12,02,03,32,8.80
2021,12,02,03,33,8.70
2021,12,02,03,34,8.70
2021,12,02,03,35,8.60
2021,12,02,03,36,8.60
2021,12,02,03,37,8.60
2021,12,02,03,38,8.60
2021,12,02,03,39,8.50
2021,12,02,03,40,8.50
2021,12,02,03,41,8.40
2021,12,02,03,42,8.40
2021,12,02,03,43,8.40
2021,12,02,03,44,8.30
2021,12,02,03,45,8.30
2021,12,02,03,46,8.30
2021,12,02,03,47,8.20
2021,12,02,03,48,8.20
2021,12,02,03,49,8.20
2021,12,02,03,50,8.30
2021,12,02,03,51,8.30
2021,12,02,03,52,8.40
2021,12,02,03,53,8.50
2021,12,02,03,54,8.70
2021,12,02,03,55,8.80
2021,12,02,03,56,8.80
2021,12,02,03,57,8.90
2021,12,02,03,58,8.90
2021,12,02,03,59,8.80
2021,12,02,04,00,8.80
2021,12,02,04,01,8.80
2021,12,02,04,02,8.70
2021,12,02,04,03,8.60
2021,12,02,04,04,8.50
2021,12,02,04,05,8.40
2021,12,02,04,06,8.40
2021,12,02,04,07,8.30
2021,12,02,04,08,8.30
2021,12,02,04,09,8.30
2021,12,02,04,10,8.20
2021,12,02,04,11,8.20
2021,12,02,04,12,8.20
2021,12,02,04,13,8.20
2021,12,02,04,14,8.10
2021,12,02,04,15,8.10
2021,12,02,04,16,8.10
2021,12,02,04,17,8.00
2021,12,02,04,18,8.00
2021,12,02,04,19,7.90
2021,12,02,04,20,7.90
2021,12,02,04,21,7.90
2021,12,02,04,22,7.90
2021,12,02,04,23,7.90
2021,12,02,04,24,7.90
2021,12,02,04,25,7.80
2021,12,02,04,26,7.80
2021,12,02,04,27,7.80
2021,12,02,04,28,7.80
2021,12,02,04,29,7.70
2021,12,02,04,30,7.70
2021,12,02,04,31,7.70
2021,12,02,04,32,7.70
2021,12,02,04,33,7.60
2021,12,02,04,34,7.60
2021,12,02,04,35,7.60
2021,12,02,04,36,7.60
2021,12,02,04,37,7.50
2021,12,02,04,38,7.50
2021,12,02,04,39,7.50
2021,12,02,04,40,7.60
2021,12,02,04,41,7.60
2021,12,02,04,42,7.60
2021,12,02,04,43,7.60
2021,12,02,04,44,7.60
2021,12,02,04,45,7.60
2021,12,02,04,46,7.60
2021,12,02,04,47,7.60
2021,12,02,04,48,7.50
2021,12,02,04,49,7.50
2021,12,02,04,50,7.50
2021,12,02,04,51,7.50
2021,12,02,04,52,7.50
2021,12,02,04,53,7.50
2021,12,02,04,54,7.50
2021,12,02,04,55,7.40
2021,12,02,04,56,7.40
2021,12,02,04,57,7.40
2021,12,02,04,58,7.40
2021,12,02,04,59,7.40
2021,12,02,05,00,7.40
2021,12,02,05,01,7.40
2021,12,02,05,02,7.40
2021,12,02,05,03,7.40
2021,12,02,05,04,7.40
2021,12,02,05,05,7.30
2021,12,02,05,06,7.30
2021,12,02,05,07,7.30
2021,12,02,05,08,7.30
2021,12,02,05,09,7.30
2021,12,02,05,10,7.30
2021,12,02,05,11,7.20
2021,12,02,05,12,7.20
2021,12,02,05,13,7.20
2021,12,02,05,14,7.20
2021,12,02,05,15,7.20
2021,12,02,05,16,7.20
2021,12,02,05,17,7.20
2021,12,02,05,18,7.20
2021,12,02,05,19,7.20
2021,12,02,05,20,7.20
2021,12,02,05,21,7.20
2021,12,02,05,22,7.20
2021,12,02,05,23,7.10
2021,12,02,05,24,7.10
2021,12,02,05,25,7.10
2021,12,02,05,26,7.10
2021,12,02,05,27,7.10
2021,12,02,05,28,7.10
2021,12,02,05,29,7.10
2021,12,02,05,30,7.10
2021,12,02,05,31,7.10
2021,12,02,05,32,7.10
2021,12,02,05,33,7.10
2021,12,02,05,34,7.10
2021,12,02,05,35,7.10
2021,12,02,05,36,7.10
2021,12,02,05,37,7.10
2021,12,02,05,38,7.10
2021,12,02,05,39,7.10
2021,12,02,05,40,7.10
2021,12,02,05,41,7.10
2021,12,02,05,42,7.10
2021,12,02,05,43,7.10
2021,12,02,05,44,7.10
2021,12,02,05,45,7.10
2021,12,02,05,46,7.10
2021,12,02,05,47,7.10
2021,12,02,05,48,7.10
2021,12,02,05,49,7.10
2021,12,02,05,50,7.00
2021,12,02,05,51,7.00
2021,12,02,05,52,7.00
2021,12,02,05,53,7.00
2021,12,02,05,54,7.00
2021,12,02,05,55,7.00
2021,12,02,05,56,7.00
2021,12,02,05,57,7.00
2021,12,02,05,58,7.00
2021,12,02,05,59,6.90
2021,12,02,06,00,6.90
2021,12,02,06,01,6.90
2021,12,02,06,02,6.90
2021,12,02,06,03,6.90
2021,12,02,06,04,6.90
2021,12,02,06,05,6.90
2021,12,02,06,06,6.90
2021,12,02,06,07,6.90
2021,12,02,06,08,6.90
2021,12,02,06,09,6.90
2021,12,02,06,10,6.90
2021,12,02,06,11,6.90
2021,12,02,06,12,6.90
2021,12,02,06,13,6.90
2021,12,02,06,14,6.90
2021,12,02,06,15,6.90
2021,12,02,06,16,6.90
2021,12,02,06,17,6.90
2021,12,02,06,18,6.80
2021,12,02,06,19,6.80
2021,12,02,06,20,6.80
2021,12,02,06,21,6.80
2021,12,02,06,22,6.80
2021,12,02,06,23,6.80
2021,12,02,06,24,6.80
2021,12,02,06,25,6.80
2021,12,02,06,26,6.80
2021,12,02,06,27,6.80
2021,12,02,06,28,6.80
2021,12,02,06,29,6.80
2021,12,02,06,30,6.80
2021,12,02,06,31,6.80
2021,12,02,06,32,6.80
2021,12,02,06,33,6.80
2021,12,02,06,34,6.80
2021,12,02,06,35,6.80
2021,12,02,06,36,6.80
2021,12,02,06,37,6.70
2021,12,02,06,38,6.80
2021,12,02,06,39,6.80
2021,12,02,06,40,6.80
2021,12,02,06,41,6.80
2021,12,02,06,42,6.80
2021,12,02,06,43,6.80
2021,12,02,06,44,6.80
2021,12,02,06,45,6.80
2021,12,02,06,46,6.80
2021,12,02,06,47,6.70
2021,12,02,06,48,6.70
2021,12,02,06,49,6.70
2021,12,02,06,50,6.70
2021,12,02,06,51,6.70
2021,12,02,06,52,6.80
2021,12,02,06,53,6.70
2021,12,02,06,54,6.70
2021,12,02,06,55,6.70
2021,12,02,06,56,6.70
2021,12,02,06,57,6.60
2021,12,02,06,58,6.60
2021,12,02,06,59,6.60
2021,12,02,07,00,6.50
2021,12,02,07,01,6.50
2021,12,02,07,02,6.50
2021,12,02,07,03,6.50
2021,12,02,07,04,6.50
2021,12,02,07,05,6.50
2021,12,02,07,06,6.50
2021,12,02,07,07,6.50
2021,12,02,07,08,6.50
2021,12,02,07,09,6.50
2021,12,02,07,10,6.50
2021,12,02,07,11,6.50
2021,12,02,07,12,6.60
2021,12,02,07,13,6.50
2021,12,02,07,14,6.50
2021,12,02,07,15,6.50
2021,12,02,07,16,6.50
2021,12,02,07,17,6.50
2021,12,02,07,18,6.40
2021,12,02,07,19,6.40
2021,12,02,07,20,6.40
2021,12,02,07,21,6.30
2021,12,02,07,22,6.30
2021,12,02,07,23,6.30
2021,12,02,07,24,6.30
2021,12,02,07,25,6.30
2021,12,02,07,26,6.30
2021,12,02,07,27,6.30
2021,12,02,07,28,6.20
2021,12,02,07,29,6.20
2021,12,02,07,30,6.20
2021,12,02,07,31,6.20
2021,12,02,07,32,6.20
2021,12,02,07,33,6.20
2021,12,02,07,34,6.20
2021,12,02,07,35,6.20
2021,12,02,07,36,6.20
2021,12,02,07,37,6.20
2021,12,02,07,38,6.20
2021,12,02,07,39,6.20
2021,12,02,07,40,6.20
2021,12,02,07,41,6.20
2021,12,02,07,42,6.20
2021,12,02,07,43,6.20
2021,12,02,07,44,6.20
2021,12,02,07,45,6.20
2021,12,02,07,46,6.10
2021,12,02,07,47,6.10
2021,12,02,07,48,6.10
2021,12,02,07,49,6.10
2021,12,02,07,50,6.10
2021,12,02,07,51,6.10
2021,12,02,07,52,6.10
2021,12,02,07,53,6.10
2021,12,02,07,54,6.10
2021,12,02,07,55,6.10
2021,12,02,07,56,6.10
2021,12,02,07,57,6.10
2021,12,02,07,58,6.10
2021,12,02,07,59,6.10
2021,12,02,08,00,6.10
2021,12,02,08,01,6.10
2021,12,02,08,02,6.10
2021,12,02,08,03,6.10
2021,12,02,08,04,6.10
2021,12,02,08,05,6.10
2021,12,02,08,06,6.10
2021,12,02,08,07,6.10
2021,12,02,08,08,6.10
2021,12,02,08,09,6.10
2021,12,02,08,10,6.10
2021,12,02,08,11,6.00
2021,12,02,08,12,6.00
2021,12,02,08,13,6.00
2021,12,02,08,14,6.00
2021,12,02,08,15,6.00
2021,12,02,08,16,5.90
2021,12,02,08,17,6.00
2021,12,02,08,18,6.00
2021,12,02,08,19,5.90
2021,12,02,08,20,5.90
2021,12,02,08,21,5.90
2021,12,02,08,22,5.90
2021,12,02,08,23,5.90
2021,12,02,08,24,5.90
2021,12,02,08,25,5.80
2021,12,02,08,26,5.80
2021,12,02,08,27,5.80
2021,12,02,08,28,5.80
2021,12,02,08,29,5.80
2021,12,02,08,30,5.70
2021,12,02,08,31,5.80
2021,12,02,08,32,5.70
2021,12,02,08,33,5.70
2021,12,02,08,34,5.70
2021,12,02,08,35,5.70
2021,12,02,08,36,5.70
2021,12,02,08,37,5.70
2021,12,02,08,38,5.70
2021,12,02,08,39,5.70
2021,12,02,08,40,5.70
2021,12,02,08,41,5.70
2021,12,02,08,42,5.70
2021,12,02,08,43,5.70
2021,12,02,08,44,5.70
2021,12,02,08,45,5.70
2021,12,02,08,46,5.70
2021,12,02,08,47,5.70
2021,12,02,08,48,5.70
2021,12,02,08,49,5.70
2021,12,02,08,50,5.70
2021,12,02,08,51,5.70
2021,12,02,08,52,5.70
2021,12,02,08,53,5.70
2021,12,02,08,54,5.80
2021,12,02,08,55,5.80
2021,12,02,08,56,5.80
2021,12,02,08,57,5.80
2021,12,02,08,58,5.90
2021,12,02,08,59,5.90
2021,12,02,09,00,5.90
2021,12,02,09,01,6.00
2021,12,02,09,02,6.10
2021,12,02,09,03,6.20
2021,12,02,09,04,6.30
2021,12,02,09,05,6.40
2021,12,02,09,06,6.40
2021,12,02,09,07,6.50
2021,12,02,09,08,6.50
2021,12,02,09,09,6.50
2021,12,02,09,10,6.50
2021,12,02,09,11,6.50
2021,12,02,09,12,6.40
2021,12,02,09,13,6.40
2021,12,02,09,14,6.40
2021,12,02,09,15,6.40
2021,12,02,09,16,6.30
2021,12,02,09,17,6.30
2021,12,02,09,18,6.30
2021,12,02,09,19,6.20
2021,12,02,09,20,6.20
2021,12,02,09,21,6.10
2021,12,02,09,22,6.10
2021,12,02,09,23,6.10
2021,12,02,09,24,6.00
2021,12,02,09,25,6.00
2021,12,02,09,26,6.00
2021,12,02,09,27,6.00
2021,12,02,09,28,6.00
2021,12,02,09,29,6.00
2021,12,02,09,30,5.90
2021,12,02,09,31,5.90
2021,12,02,09,32,5.90
2021,12,02,09,33,5.90
2021,12,02,09,34,5.90
2021,12,02,09,35,5.90
2021,12,02,09,36,5.90
2021,12,02,09,37,5.90
2021,12,02,09,38,5.90
2021,12,02,09,39,5.90
2021,12,02,09,40,5.90
2021,12,02,09,41,5.80
2021,12,02,09,42,5.80
2021,12,02,09,43,5.90
2021,12,02,09,44,5.80
2021,12,02,09,45,5.80
2021,12,02,09,46,5.80
2021,12,02,09,47,5.90
2021,12,02,09,48,5.90
2021,12,02,09,49,5.90
2021,12,02,09,50,5.90
2021,12,02,09,51,5.90
2021,12,02,09,52,5.90
2021,12,02,09,53,5.90
2021,12,02,09,54,5.90
2021,12,02,09,55,5.90
2021,12,02,09,56,5.90
2021,12,02,09,57,5.90
2021,12,02,09,58,5.90
2021,12,02,09,59,6.00
2021,12,02,10,00,6.00
2021,12,02,10,01,6.00
2021,12,02,10,02,6.10
2021,12,02,10,03,6.10
2021,12,02,10,04,6.10
2021,12,02,10,05,6.10
2021,12,02,10,06,6.10
2021,12,02,10,07,6.10
2021,12,02,10,08,6.10
2021,12,02,10,09,6.10
2021,12,02,10,10,6.10
2021,12,02,10,11,6.20
2021,12,02,10,12,6.20
2021,12,02,10,13,6.20
2021,12,02,10,14,6.20
2021,12,02,10,15,6.20
2021,12,02,10,16,6.20
2021,12,02,10,17,6.20
2021,12,02,10,18,6.30
2021,12,02,10,19,6.30
2021,12,02,10,20,6.30
2021,12,02,10,21,6.40
2021,12,02,10,22,6.50
2021,12,02,10,23,6.50
2021,12,02,10,24,6.60
2021,12,02,10,25,6.70
2021,12,02,10,26,6.80
2021,12,02,10,27,6.80
2021,12,02,10,28,6.90
2021,12,02,10,29,6.90
2021,12,02,10,30,7.00
2021,12,02,10,31,7.10
2021,12,02,10,32,7.10
2021,12,02,10,33,7.20
2021,12,02,10,34,7.20
2021,12,02,10,35,7.30
2021,12,02,10,36,7.30
2021,12,02,10,37,7.30
2021,12,02,10,38,7.40
2021,12,02,10,39,7.40
2021,12,02,10,40,7.40
2021,12,02,10,41,7.50
2021,12,02,10,42,7.60
2021,12,02,10,43,7.60
2021,12,02,10,44,7.60
2021,12,02,10,45,7.60
2021,12,02,10,46,7.60
2021,12,02,10,47,7.70
2021,12,02,10,48,7.60
2021,12,02,10,49,7.60
2021,12,02,10,50,7.60
2021,12,02,10,51,7.60
2021,12,02,10,52,7.70
2021,12,02,10,53,7.70
2021,12,02,10,54,7.70
2021,12,02,10,55,7.70
2021,12,02,10,56,7.70
2021,12,02,10,57,7.80
2021,12,02,10,58,7.90
2021,12,02,10,59,7.90
2021,12,02,11,00,8.00
2021,12,02,11,01,8.00
2021,12,02,11,02,8.00
2021,12,02,11,03,8.10
2021,12,02,11,04,8.10
2021,12,02,11,05,8.10
2021,12,02,11,06,8.10
2021,12,02,11,07,8.20
2021,12,02,11,08,8.20
2021,12,02,11,09,8.20
2021,12,02,11,10,8.20
2021,12,02,11,11,8.20
2021,12,02,11,12,8.20
2021,12,02,11,13,8.20
2021,12,02,11,14,8.20
2021,12,02,11,15,8.20
2021,12,02,11,16,8.20
2021,12,02,11,17,8.20
2021,12,02,11,18,8.30
2021,12,02,11,19,8.30
2021,12,02,11,20,8.30
2021,12,02,11,21,8.30
2021,12,02,11,22,8.30
2021,12,02,11,23,8.30
2021,12,02,11,24,8.30
2021,12,02,11,25,8.30
2021,12,02,11,26,8.30
2021,12,02,11,27,8.40
2021,12,02,11,28,8.40
2021,12,02,11,29,8.40
2021,12,02,11,30,8.50
2021,12,02,11,31,8.50
2021,12,02,11,32,8.50
2021,12,02,11,33,8.60
2021,12,02,11,34,8.60
2021,12,02,11,35,8.60
2021,12,02,11,36,8.60
2021,12,02,11,37,8.60
2021,12,02,11,38,8.60
2021,12,02,11,39,8.60
2021,12,02,11,40,8.60
2021,12,02,11,41,8.70
2021,12,02,11,42,8.70
2021,12,02,11,43,8.70
2021,12,02,11,44,8.70
2021,12,02,11,45,8.70
2021,12,02,11,46,8.70
2021,12,02,11,47,8.70
2021,12,02,11,48,8.80
2021,12,02,11,49,8.80
2021,12,02,11,50,8.80
2021,12,02,11,51,8.80
2021,12,02,11,52,8.80
2021,12,02,11,53,8.80
2021,12,02,11,54,8.80
2021,12,02,11,55,8.80
2021,12,02,11,56,8.80
2021,12,02,11,57,8.80
2021,12,02,11,58,8.80
2021,12,02,11,59,8.90
2021,12,02,12,00,8.90
2021,12,02,12,01,8.90
2021,12,02,12,02,8.80
2021,12,02,12,03,8.80
2021,12,02,12,04,8.80
2021,12,02,12,05,8.80
2021,12,02,12,06,8.80
2021,12,02,12,07,8.80
2021,12,02,12,08,8.80
2021,12,02,12,09,8.80
2021,12,02,12,10,8.80
2021,12,02,12,11,8.80
2021,12,02,12,12,8.70
2021,12,02,12,13,8.70
2021,12,02,12,14,8.70
2021,12,02,12,15,8.70
2021,12,02,12,16,8.70
2021,12,02,12,17,8.70
2021,12,02,12,18,8.70
2021,12,02,12,19,8.70
2021,12,02,12,20,8.70
2021,12,02,12,21,8.70
2021,12,02,12,22,8.60
2021,12,02,12,23,8.70
2021,12,02,12,24,8.70
2021,12,02,12,25,8.70
2021,12,02,12,26,8.70
2021,12,02,12,27,8.70
2021,12,02,12,28,8.70
2021,12,02,12,29,8.70
2021,12,02,12,30,8.70
2021,12,02,12,31,8.70
2021,12,02,12,32,8.70
2021,12,02,12,33,8.70
2021,12,02,12,34,8.70
2021,12,02,12,35,8.70
2021,12,02,12,36,8.70
2021,12,02,12,37,8.70
2021,12,02,12,38,8.70
2021,12,02,12,39,8.70
2021,12,02,12,40,8.70
2021,12,02,12,41,8.70
2021,12,02,12,42,8.70
2021,12,02,12,43,8.70
2021,12,02,12,44,8.70
2021,12,02,12,45,8.70
2021,12,02,12,46,8.70
2021,12,02,12,47,8.70
2021,12,02,12,48,8.70
2021,12,02,12,49,8.70
2021,12,02,12,50,8.70
2021,12,02,12,51,8.70
2021,12,02,12,52,8.70
2021,12,02,12,53,8.70
2021,12,02,12,54,8.70
2021,12,02,12,55,8.70
2021,12,02,12,56,8.70
2021,12,02,12,57,8.70
2021,12,02,12,58,8.70
2021,12,02,12,59,8.70
2021,12,02,13,00,8.70
2021,12,02,13,01,8.70
2021,12,02,13,02,8.70
2021,12,02,13,03,8.70
2021,12,02,13,04,8.80
2021,12,02,13,05,8.80
2021,12,02,13,06,8.80
2021,12,02,13,07,8.80
2021,12,02,13,08,8.80
2021,12,02,13,09,8.80
2021,12,02,13,10,8.80
2021,12,02,13,11,8.80
2021,12,02,13,12,8.80
2021,12,02,13,13,8.80
2021,12,02,13,14,8.70
2021,12,02,13,15,8.70
2021,12,02,13,16,8.70
2021,12,02,13,17,8.70
2021,12,02,13,18,8.60
2021,12,02,13,19,8.60
2021,12,02,13,20,8.50
2021,12,02,13,21,8.40
2021,12,02,13,22,8.40
2021,12,02,13,23,8.30
2021,12,02,13,24,8.30
2021,12,02,13,25,8.20
2021,12,02,13,26,8.20
2021,12,02,13,27,8.20
2021,12,02,13,28,8.10
2021,12,02,13,29,8.10
2021,12,02,13,30,8.00
2021,12,02,13,31,8.00
2021,12,02,13,32,7.90
2021,12,02,13,33,7.90
2021,12,02,13,34,7.90
2021,12,02,13,35,7.80
2021,12,02,13,36,7.80
2021,12,02,13,37,7.80
2021,12,02,13,38,7.80
2021,12,02,13,39,7.80
2021,12,02,13,40,7.80
2021,12,02,13,41,7.70
2021,12,02,13,42,7.70
2021,12,02,13,43,7.70
2021,12,02,13,44,7.70
2021,12,02,13,45,7.70
2021,12,02,13,46,7.70
2021,12,02,13,47,7.70
2021,12,02,13,48,7.70
2021,12,02,13,49,7.70
2021,12,02,13,50,7.70
2021,12,02,13,51,7.70
2021,12,02,13,52,7.70
2021,12,02,13,53,7.70
2021,12,02,13,54,7.70
2021,12,02,13,55,7.70
2021,12,02,13,56,7.70
2021,12,02,13,57,7.70
2021,12,02,13,58,7.70
2021,12,02,13,59,7.60
2021,12,02,14,00,7.60
2021,12,02,14,01,7.60
2021,12,02,14,02,7.60
2021,12,02,14,03,7.60
2021,12,02,14,04,7.60
2021,12,02,14,05,7.60
2021,12,02,14,06,7.60
2021,12,02,14,07,7.60
2021,12,02,14,08,7.60
2021,12,02,14,09,7.60
2021,12,02,14,10,7.60
2021,12,02,14,11,7.60
2021,12,02,14,12,7.60
2021,12,02,14,13,7.60
2021,12,02,14,14,7.60
2021,12,02,14,15,7.60
2021,12,02,14,16,7.60
2021,12,02,14,17,7.60
2021,12,02,14,18,7.60
2021,12,02,14,19,7.60
2021,12,02,14,20,7.60
2021,12,02,14,21,7.60
2021,12,02,14,22,7.60
2021,12,02,14,23,7.60
2021,12,02,14,24,7.60
2021,12,02,14,25,7.50
2021,12,02,14,26,7.50
2021,12,02,14,27,7.50
2021,12,02,14,28,7.50
2021,12,02,14,29,7.50
2021,12,02,14,30,7.50
2021,12,02,14,31,7.40
2021,12,02,14,32,7.40
2021,12,02,14,33,7.50
2021,12,02,14,34,7.40
2021,12,02,14,35,7.40
2021,12,02,14,36,7.40
2021,12,02,14,37,7.40
2021,12,02,14,38,7.30
2021,12,02,14,39,7.30
2021,12,02,14,40,7.40
2021,12,02,14,41,7.30
2021,12,02,14,42,7.30
2021,12,02,14,43,7.40
2021,12,02,14,44,7.40
2021,12,02,14,45,7.40
2021,12,02,14,46,7.40
2021,12,02,14,47,7.40
2021,12,02,14,48,7.40
2021,12,02,14,49,7.40
2021,12,02,14,50,7.40
2021,12,02,14,51,7.40
2021,12,02,14,52,7.40
2021,12,02,14,53,7.40
2021,12,02,14,54,7.40
2021,12,02,14,55,7.40
2021,12,02,14,56,7.40
2021,12,02,14,57,7.40
2021,12,02,14,58,7.40
2021,12,02,14,59,7.40
2021,12,02,15,00,7.40
2021,12,02,15,01,7.40
2021,12,02,15,02,7.40
2021,12,02,15,03,7.40
2021,12,02,15,04,7.40
2021,12,02,15,05,7.40
2021,12,02,15,06,7.40
2021,12,02,15,07,7.50
2021,12,02,15,08,7.50
2021,12,02,15,09,7.40
2021,12,02,15,10,7.50
2021,12,02,15,11,7.50
2021,12,02,15,12,7.40
2021,12,02,15,13,7.50
2021,12,02,15,14,7.50
2021,12,02,15,15,7.50
2021,12,02,15,16,7.50
2021,12,02,15,17,7.50
2021,12,02,15,18,7.50
2021,12,02,15,19,7.50
2021,12,02,15,20,7.50
2021,12,02,15,21,7.50
2021,12,02,15,22,7.50
2021,12,02,15,23,7.50
2021,12,02,15,24,7.50
2021,12,02,15,25,7.50
2021,12,02,15,26,7.50
2021,12,02,15,27,7.50
2021,12,02,15,28,7.40
2021,12,02,15,29,7.40
2021,12,02,15,30,7.40
2021,12,02,15,31,7.40
2021,12,02,15,32,7.30
2021,12,02,15,33,7.30
2021,12,02,15,34,7.30
2021,12,02,15,35,7.30
2021,12,02,15,36,7.30
2021,12,02,15,37,7.30
2021,12,02,15,38,7.30
2021,12,02,15,39,7.30
2021,12,02,15,40,7.20
2021,12,02,15,41,7.20
2021,12,02,15,42,7.20
2021,12,02,15,43,7.20
2021,12,02,15,44,7.20
2021,12,02,15,45,7.20
2021,12,02,15,46,7.10
2021,12,02,15,47,7.10
2021,12,02,15,48,7.10
2021,12,02,15,49,7.10
2021,12,02,15,50,7.10
2021,12,02,15,51,7.10
2021,12,02,15,52,7.00
2021,12,02,15,53,7.00
2021,12,02,15,54,7.00
2021,12,02,15,55,7.00
2021,12,02,15,56,6.90
2021,12,02,15,57,6.90
2021,12,02,15,58,6.90
2021,12,02,15,59,6.90
2021,12,02,16,00,6.90
2021,12,02,16,01,6.90
2021,12,02,16,02,6.80
2021,12,02,16,03,6.80
2021,12,02,16,04,6.80
2021,12,02,16,05,6.80
2021,12,02,16,06,6.80
2021,12,02,16,07,6.80
2021,12,02,16,08,6.80
2021,12,02,16,09,6.80
2021,12,02,16,10,6.80
2021,12,02,16,11,6.80
2021,12,02,16,12,6.70
2021,12,02,16,13,6.70
2021,12,02,16,14,6.70
2021,12,02,16,15,6.60
2021,12,02,16,16,6.60
2021,12,02,16,17,6.60
2021,12,02,16,18,6.60
2021,12,02,16,19,6.60
2021,12,02,16,20,6.50
2021,12,02,16,21,6.50
2021,12,02,16,22,6.50
2021,12,02,16,23,6.50
2021,12,02,16,24,6.50
2021,12,02,16,25,6.40
2021,12,02,16,26,6.40
2021,12,02,16,27,6.40
2021,12,02,16,28,6.40
2021,12,02,16,29,6.40
2021,12,02,16,30,6.40
2021,12,02,16,31,6.40
2021,12,02,16,32,6.40
2021,12,02,16,33,6.40
2021,12,02,16,34,6.40
2021,12,02,16,35,6.40
2021,12,02,16,36,6.40
2021,12,02,16,37,6.40
2021,12,02,16,38,6.40
2021,12,02,16,39,6.40
2021,12,02,16,40,6.30
2021,12,02,16,41,6.30
2021,12,02,16,42,6.30
2021,12,02,16,43,6.30
2021,12,02,16,44,6.30
2021,12,02,16,45,6.30
2021,12,02,16,46,6.30
2021,12,02,16,47,6.30
2021,12,02,16,48,6.30
2021,12,02,16,49,6.30
2021,12,02,16,50,6.30
2021,12,02,16,51,6.30
2021,12,02,16,52,6.30
2021,12,02,16,53,6.30
2021,12,02,16,54,6.20
2021,12,02,16,55,6.20
2021,12,02,16,56,6.20
2021,12,02,16,57,6.10
2021,12,02,16,58,6.10
2021,12,02,16,59,6.00
2021,12,02,17,00,6.00
2021,12,02,17,01,5.90
2021,12,02,17,02,5.90
2021,12,02,17,03,5.90
2021,12,02,17,04,5.80
2021,12,02,17,05,5.80
2021,12,02,17,06,5.80
2021,12,02,17,07,5.70
2021,12,02,17,08,5.70
2021,12,02,17,09,5.70
2021,12,02,17,10,5.60
2021,12,02,17,11,5.60
2021,12,02,17,12,5.60
2021,12,02,17,13,5.50
2021,12,02,17,14,5.50
2021,12,02,17,15,5.40
2021,12,02,17,16,5.40
2021,12,02,17,17,5.40
2021,12,02,17,18,5.30
2021,12,02,17,19,5.30
2021,12,02,17,20,5.30
2021,12,02,17,21,5.30
2021,12,02,17,22,5.20
2021,12,02,17,23,5.20
2021,12,02,17,24,5.20
2021,12,02,17,25,5.10
2021,12,02,17,26,5.10
2021,12,02,17,27,5.10
2021,12,02,17,28,5.00
2021,12,02,17,29,5.00
2021,12,02,17,30,5.00
2021,12,02,17,31,5.00
2021,12,02,17,32,5.00
2021,12,02,17,33,4.90
2021,12,02,17,34,4.90
2021,12,02,17,35,4.90
2021,12,02,17,36,4.90
2021,12,02,17,37,4.90
2021,12,02,17,38,4.90
2021,12,02,17,39,4.90
2021,12,02,17,40,4.80
2021,12,02,17,41,4.80
2021,12,02,17,42,4.80
2021,12,02,17,43,4.80
2021,12,02,17,44,4.80
2021,12,02,17,45,4.80
2021,12,02,17,46,4.80
2021,12,02,17,47,4.70
2021,12,02,17,48,4.70
2021,12,02,17,49,4.70
2021,12,02,17,50,4.70
2021,12,02,17,51,4.70
2021,12,02,17,52,4.70
2021,12,02,17,53,4.60
2021,12,02,17,54,4.60
2021,12,02,17,55,4.60
2021,12,02,17,56,4.60
2021,12,02,17,57,4.50
2021,12,02,17,58,4.50
2021,12,02,17,59,4.40